Stations météo

réclame
Mon MeteoGroup
Tännäs, Suède (2308): Température de l'air & dewpoint: 16.06.2018 19:00:00 - 22.06.2018 19:00:00 (CEST)Tännäs, Suède (2308): Vitesse du vent & gusts: 16.06.2018 19:00:00 - 22.06.2018 19:00:00 (CEST)Tännäs, Suède (2308): Direction du vent: 16.06.2018 19:00:00 - 22.06.2018 19:00:00 (CEST)Tännäs, Suède (2308): reduced air pressure: 16.06.2018 19:00:00 - 22.06.2018 19:00:00 (CEST)Tännäs, Suède (2308): visibility: 16.06.2018 19:00:00 - 22.06.2018 19:00:00 (CEST)Tännäs, Suède (2308): Quantités de précipitations: 16.06.2018 19:00:00 - 22.06.2018 19:00:00 (CEST)
Date & Time tt [°C] td [°C] ff [km/h] ff [knt] fx [km/h] fx [knt] dd ppp [hPa] vv [km] rr [mm]
22.06.2018 19:00:00 6,2 1,1 14 8 40 22 W 1007,3 49 0,0
22.06.2018 18:00:00 6,8 1,3 9 5 40 21 W 1006,8 38 0,0
22.06.2018 17:00:00 7,1 1,2 13 7 39 21 W 1006,2 39 0,0
22.06.2018 16:00:00 7,0 0,7 13 7 46 25 WNW 1006,0 47 0,0
22.06.2018 15:00:00 6,1 1,0 10 5 45 24 W 1005,8 50 0,0
22.06.2018 14:00:00 5,7 0,9 9 5 40 22 W 1006,2 50 0,0
22.06.2018 13:00:00 7,6 0,8 11 6 36 19 W 1004,9 45 0,0
22.06.2018 12:00:00 5,4 0,6 9 5 35 19 W 1005,4 50 0,0
22.06.2018 11:00:00 5,7 0,5 12 7 39 21 W 1005,0 50 0,0
22.06.2018 10:00:00 4,5 0,5 7 4 32 17 W 1005,7 50 0,0
22.06.2018 09:00:00 5,7 1,0 8 4 26 14 W 1004,2 36 0,0
22.06.2018 08:00:00 4,7 1,5 8 4 29 16 WSW 1004,6 42 0,0
22.06.2018 07:00:00 4,5 2,4 6 3 18 10 W 1005,2 30 0,0
22.06.2018 06:00:00 4,3 1,8 5 3 27 14 WNW 1005,7 32 0,0
22.06.2018 05:00:00 4,5 1,9 8 4 27 14 WNW 1006,1 45 0,2
22.06.2018 04:00:00 3,5 1,2 4 2 24 13 WNW 1006,4 50 0,0
22.06.2018 03:00:00 4,1 1,3 5 3 27 14 W 1006,3 50 0,0
22.06.2018 02:00:00 3,3 0,5 5 3 36 19 W 1006,8 50 0,0
22.06.2018 01:00:00 3,6 0,6 6 3 21 11 WSW 1007,1 50 0,0
22.06.2018 00:00:00 3,7 1,4 3 2 14 8 SW 1007,2 50 0,0
21.06.2018 23:00:00 4,1 1,8 4 2 21 11 SSW 1007,0 50 0,0
21.06.2018 22:00:00 5,2 1,7 4 2 28 15 SW 1006,7 50 0,0
21.06.2018 21:00:00 6,7 2,2 5 3 20 11 WSW 1005,9 50 0,0
21.06.2018 20:00:00 9,0 2,1 5 3 25 13 W 1004,9 50 0,0
21.06.2018 19:00:00 10,1 2,0 5 3 21 11 WSW 1004,2 50 0,0
21.06.2018 18:00:00 9,6 2,0 6 3 26 14 W 1004,1 50 0,0
21.06.2018 17:00:00 10,7 1,8 6 3 23 12 S 1003,6 45 0,0
21.06.2018 16:00:00 12,7 3,4 6 3 19 11 WSW 1002,8 37 0,0
21.06.2018 15:00:00 9,8 1,7 4 2 14 7 SW 1003,7 50 0,0
21.06.2018 14:00:00 9,7 4,1 4 2 14 8 ESE 1003,8 26 0,0
21.06.2018 13:00:00 12,0 4,0 4 2 11 6 WSW 1003,1 38 0,0
21.06.2018 12:00:00 8,7 2,0 3 2 10 6 SSW 1004,6 44 0,0
21.06.2018 11:00:00 7,8 2,1 3 2 11 6 SSW 1005,1 50 0,0
21.06.2018 10:00:00 8,0 3,5 4 2 13 7 SSW 1005,1 43 0,0
21.06.2018 09:00:00 6,3 2,4 4 2 13 7 W 1005,9 50 0,0
21.06.2018 08:00:00 5,6 3,3 3 1 9 5 W 1006,2 39 0,0
21.06.2018 07:00:00 4,8 2,8 3 1 9 5 SW 1006,9 43 0,0
21.06.2018 06:00:00 3,8 3,2 2 1 6 3 S 1007,3 19 0,0
21.06.2018 05:00:00 3,6 3,3 1 1 5 3 SSE 1007,7 11 0,6
21.06.2018 04:00:00 3,4 3,0 1 1 5 3 NNE 1007,7 21 0,1
21.06.2018 03:00:00 3,5 3,1 1 1 4 2 NE 1007,7 29 0,2
21.06.2018 02:00:00 3,5 2,9 1 1 4 2 E 1008,0 41 0,0
21.06.2018 01:00:00 4,1 3,5 1 1 9 5 ENE 1007,9 33 0,3
21.06.2018 00:00:00 4,5 3,5 1 1 6 3 N 1007,9 23 0,5
20.06.2018 23:00:00 5,4 3,6 3 1 8 4 ENE 1007,6 50 0,0
20.06.2018 22:00:00 6,1 2,7 3 1 8 5 SSW 1006,7 50 0,1
20.06.2018 21:00:00 7,3 1,8 3 1 13 7 SSW 1006,0 50 0,0
20.06.2018 20:00:00 8,6 0,8 3 2 12 6 SSW 1005,5 50 0,0
20.06.2018 19:00:00 10,3 1,4 3 2 13 7 SW 1004,7 50 0,0
20.06.2018 18:00:00 11,5 0,0 4 2 14 7 W 1004,6 50 0,0
20.06.2018 17:00:00 12,6 -0,6 6 4 26 14 W 1004,2 50 0,0
20.06.2018 16:00:00 13,5 -0,9 6 3 24 13 WSW 1004,1 42 0,0
20.06.2018 15:00:00 12,7 -1,3 7 4 22 12 W 1004,4 48 0,0
20.06.2018 14:00:00 14,7 0,9 7 4 24 13 W 1003,9 32 0,0
20.06.2018 13:00:00 13,7 -1,5 7 4 35 19 WSW 1004,8 44 0,0
20.06.2018 12:00:00 11,9 -0,9 7 4 34 19 WSW 1005,6 39 0,0
20.06.2018 11:00:00 9,9 -1,8 6 3 33 18 SW 1006,6 50 0,0
20.06.2018 10:00:00 9,2 -3,4 9 5 30 16 W 1006,5 45 0,0
20.06.2018 09:00:00 9,8 -3,2 11 6 34 18 WSW 1006,1 37 0,0
20.06.2018 08:00:00 8,9 -3,0 8 5 30 16 WSW 1006,1 50 0,0
20.06.2018 07:00:00 5,8 -3,8 9 5 30 16 W 1006,7 50 0,0
20.06.2018 06:00:00 4,8 -3,7 6 3 36 19 W 1006,7 50 0,0
20.06.2018 05:00:00 4,7 -4,1 9 5 32 17 WNW 1006,4 50 0,0
20.06.2018 04:00:00 5,1 -4,2 11 6 34 18 W 1006,0 50 0,0
20.06.2018 03:00:00 5,5 -3,1 12 6 39 21 W 1005,6 50 0,0
20.06.2018 02:00:00 5,8 -2,8 9 5 36 19 W 1005,1 50 0,0
20.06.2018 01:00:00 6,3 -3,1 11 6 33 18 WSW 1004,4 50 0,0
20.06.2018 00:00:00 7,0 -2,5 9 5 36 19 W 1003,8 50 0,0
19.06.2018 23:00:00 8,3 -2,6 11 6 53 29 W 1002,7 50 0,0
19.06.2018 22:00:00 9,2 -3,1 15 8 49 27 WSW 1001,5 50 0,0
19.06.2018 21:00:00 10,8 -1,9 15 8 42 23 WSW 1000,4 50 0,0
19.06.2018 20:00:00 12,3 -1,6 13 7 49 26 W 999,5 50 0,0
19.06.2018 19:00:00 12,9 -1,1 14 8 52 28 WSW 998,5 50 0,0
19.06.2018 18:00:00 14,7 -0,9 15 8 66 35 W 997,3 39 0,0
19.06.2018 17:00:00 15,6 0,2 13 7 50 27 WSW 996,5 40 0,0
19.06.2018 16:00:00 14,7 1,9 11 6 53 29 WSW 996,4 39 0,0
19.06.2018 15:00:00 14,2 1,8 10 6 44 24 WSW 996,3 43 0,0
19.06.2018 14:00:00 13,1 2,0 6 3 38 21 SW 996,6 42 0,0
19.06.2018 13:00:00 12,3 2,2 10 5 30 16 WSW 996,9 34 0,0
19.06.2018 12:00:00 10,6 0,9 9 5 51 28 WSW 997,5 50 0,0
19.06.2018 11:00:00 11,8 1,1 10 5 49 26 WSW 996,3 41 0,0
19.06.2018 10:00:00 11,3 1,0 10 6 33 18 W 995,9 41 0,0
19.06.2018 09:00:00 9,7 2,5 10 5 31 17 W 995,9 43 0,0
19.06.2018 08:00:00 9,2 3,2 11 6 34 18 W 996,0 45 0,0
19.06.2018 07:00:00 7,7 3,9 6 3 14 8 W 996,0 50 0,0
19.06.2018 06:00:00 7,3 4,6 3 2 18 10 WSW 996,5 50 0,0
19.06.2018 05:00:00 7,3 5,3 5 3 18 10 SSW 996,4 50 0,0
19.06.2018 04:00:00 7,3 6,6 3 2 17 9 SSW 996,8 50 0,3
19.06.2018 03:00:00 9,2 7,8 4 2 16 9 SW 997,2 24 0,0
19.06.2018 02:00:00 9,5 7,9 6 3 18 10 SSW 998,1 50 0,0
19.06.2018 01:00:00 9,6 8,3 6 3 23 12 SSW 999,2 50 0,1
19.06.2018 00:00:00 10,5 7,9 8 5 30 16 SSW 999,9 49 0,0
18.06.2018 23:00:00 10,4 7,5 9 5 32 17 SSW 1000,7 50 0,0
18.06.2018 22:00:00 11,1 7,2 8 4 27 14 SSW 1001,0 50 0,0
18.06.2018 21:00:00 12,3 7,0 6 4 27 14 WSW 1001,2 50 0,0
18.06.2018 20:00:00 13,9 7,0 8 4 30 16 WSW 1001,1 48 0,0
18.06.2018 19:00:00 13,9 6,0 6 3 27 15 WSW 1001,4 50 0,0
18.06.2018 18:00:00 14,0 6,1 8 4 32 18 SW 1001,5 50 0,0
18.06.2018 17:00:00 13,8 6,4 7 4 26 14 SW 1001,9 50 0,0
18.06.2018 16:00:00 13,5 5,9 7 4 31 17 SW 1002,3 50 0,0
18.06.2018 15:00:00 16,0 8,0 10 5 34 18 SSW 1002,1 41 0,0
18.06.2018 14:00:00 14,6 6,4 7 4 34 19 SW 1002,6 44 0,0
18.06.2018 13:00:00 15,0 7,8 7 4 31 17 SW 1002,6 49 0,0
18.06.2018 12:00:00 16,4 9,8 6 3 23 12 SW 1002,5 35 0,0
18.06.2018 11:00:00 12,3 8,4 4 2 13 7 S 1004,0 45 0,0
18.06.2018 10:00:00 12,9 9,9 4 2 10 5 SW 1004,0 43 0,0
18.06.2018 09:00:00 10,1 8,7 2 1 11 6 W 1005,3 50 0,0
18.06.2018 08:00:00 9,6 8,5 2 1 9 5 WSW 1005,5 50 0,0
18.06.2018 07:00:00 7,9 7,8 1 1 6 3 WNW 1005,7 22 0,0
18.06.2018 06:00:00 8,3 8,2 2 1 7 4 SW 1006,0 9 0,0
18.06.2018 05:00:00 7,9 7,8 1 1 4 2 WSW 1006,4 2,8 0,0
18.06.2018 04:00:00 7,7 7,6 1 0 3 2 SW 1006,7 11 0,0
18.06.2018 03:00:00 7,8 7,7 1 0 5 3 NNE 1006,9 10 0,1
18.06.2018 02:00:00 7,9 7,6 1 0 8 4 ESE 1007,3 5 1,1
18.06.2018 01:00:00 8,0 7,7 5 3 13 7 E 1007,7 19 0,1
18.06.2018 00:00:00 8,3 8,0 5 3 11 6 E 1007,7 30 0,0
17.06.2018 23:00:00 8,4 8,1 4 2 54 29 E 1008,4 28 0,0
17.06.2018 22:00:00 8,6 8,3 5 3 13 7 E 1008,7 23 0,0
17.06.2018 21:00:00 8,7 8,1 9 5 16 8 E 1009,3 26 0,1
17.06.2018 20:00:00 8,8 7,9 7 4 20 11 ESE 1009,8 39 0,0
17.06.2018 19:00:00 9,3 8,5 5 3 20 11 S 1009,7 10 0,4
17.06.2018 18:00:00 10,3 8,6 4 2 16 8 SSE 1010,1 43 0,0
17.06.2018 17:00:00 10,4 8,2 6 4 19 11 SSE 1010,4 45 0,0
17.06.2018 16:00:00 11,5 9,1 7 4 24 13 SE 1010,1 40 0,0
17.06.2018 15:00:00 11,3 9,4 5 3 24 13 SSE 1010,3 34 0,0
17.06.2018 14:00:00 9,9 9,4 5 3 21 11 S 1011,3 12 0,0
17.06.2018 13:00:00 9,2 8,9 6 4 21 11 SE 1011,7 9 0,2
17.06.2018 12:00:00 8,1 7,8 6 4 18 10 ESE 1012,7 3,7 0,8
17.06.2018 11:00:00 8,0 7,7 4 2 16 9 E 1013,3 4,8 0,5
17.06.2018 10:00:00 7,8 7,5 6 3 16 9 E 1013,8 10 1,2
17.06.2018 09:00:00 7,9 7,0 5 3 14 7 ESE 1014,3 17 0,6
17.06.2018 08:00:00 8,2 6,3 5 3 14 8 E 1014,2 30 0,2
17.06.2018 07:00:00 8,3 4,5 5 3 13 7 E 1014,5 29 0,0
17.06.2018 06:00:00 8,9 4,1 7 4 15 8 ESE 1014,4 50 0,0
17.06.2018 05:00:00 7,5 4,1 1 0 9 5 NNW 1015,3 50 0,0
17.06.2018 04:00:00 7,4 3,6 4 2 11 6 ESE 1015,5 50 0,0
17.06.2018 03:00:00 7,3 3,5 2 1 6 3 E 1015,5 50 0,0
17.06.2018 02:00:00 8,0 3,6 2 1 6 4 E 1015,5 50 0,0
17.06.2018 01:00:00 7,4 2,7 4 2 9 5 E 1015,9 50 0,0
17.06.2018 00:00:00 9,7 3,2 3 1 11 6 SE 1015,1 50 0,0
16.06.2018 23:00:00 9,2 1,1 4 2 13 7 E 1015,2 50 0,0
16.06.2018 22:00:00 11,2 1,4 2 1 4 2 NNW 1014,2 50 0,0
16.06.2018 21:00:00 12,9 2,4 1 1 8 4 E 1013,6 50 0,0
16.06.2018 20:00:00 14,7 0,5 2 1 15 8 WSW 1012,8 50 0,0
16.06.2018 19:00:00 16,0 0,5 5 3 15 8 S 1012,1 50 0,0

tt = Température de l'air
td = dewpoint
ff = Vitesse du vent
fx = gusts
dd = Direction du vent
ppp = reduced air pressure
vv = visibility
rr = Quantités de précipitations

stations d'obs. à proximité